Regional Weather Roundup
Issued by NWS Albany, NY

Home | Current Version | Previous Version | Text Only | Print | Product List | Glossary On
Versions: 1 2 3 4 5 6 7 8 9 10 11 12 13 14 15 16 17 18 19 20 21 22 23 24 25 26 27 28 29 30 31 32 33 34 35 36 37 38 39 40 41 42 43 44 45 46 47 48 49 50
852
ASUS41 KALY 191310
RWRALY

NEW YORK STATE HOURLY WEATHER ROUNDUP
NATIONAL WEATHER SERVICE ALBANY NY
800 AM EST THU JAN 19 2017

NOTE: "FAIR" INDICATES FEW OR NO CLOUDS BELOW 12,000 FEET WITH NO
SIGNIFICANT WEATHER AND/OR NO OBSTRUCTIONS TO VISIBILITY.

NYZ032-033-038>043-046>054-057>066-NYZ062>081-082-084-191400-
EAST


CITY           SKY/WX    TMP DP  RH WIND       PRES   REMARKS
ALBANY         CLOUDY    36  34  92 SW5       30.02S WCI  32
GLENS FALLS    FOG       34  31  88 NE5       30.00R VSB 1   WCI  30
POUGHKEEPSIE   CLOUDY    33  33 100 CALM      30.03R FOG
NEWBURGH       MOCLDY    34  34 100 CALM      30.03R
MONTGOMERY     CLOUDY    36  33  89 E5        30.01R WCI  32
WHITE PLAINS   PTCLDY    34  32  92 NW5       30.01R WCI  30
ISLIP          PTCLDY    33  32  96 CALM      30.03S FOG
NEW YORK CITY  PTCLDY    43  36  76 NW6       30.04R
CENTRAL PARK   CLEAR     41  36  82 VRB3      30.06R
$$

NYZ005>009-017-018-044>046-055-056-191400-
CENTRAL


CITY           SKY/WX    TMP DP  RH WIND       PRES   REMARKS
FULTON         CLOUDY    37  34  89 W7        30.05R WCI  32
SYRACUSE       CLOUDY    36  34  92 W10       30.05R WCI  28
ROME           CLOUDY    36  36 100 W7        30.04R FOG     WCI  30
ELMIRA         CLOUDY    36  31  82 CALM      30.04R
BINGHAMTON     CLOUDY    33  32  96 NW5       30.00R WCI  29
MONTICELLO     CLOUDY    36  34  93 W10       30.01R WCI  28
$$

NYZ026>034-041>043-087-191400-
NORTH


CITY           SKY/WX    TMP DP  RH WIND       PRES   REMARKS
WATERTOWN      CLOUDY    33  33 100 SW5       30.04R FOG     WCI  29
FORT DRUM      NOT AVBL
OGDENSBURG     CLOUDY    35  34  98 SW3       30.02R FOG
MASSENA        CLOUDY    35  34  96 SW8       30.02R FOG     WCI  29
SARANAC LAKE     N/A     32  29  88 W3        29.93R FOG
PLATTSBURGH    CLOUDY    34  32  92 NW6       29.98R FOG     WCI  29
$$

NYZ001>004-010>016-019>021-085-191400-
WEST


CITY           SKY/WX    TMP DP  RH WIND       PRES   REMARKS
NIAGARA FALLS  CLOUDY    36  31  82 W12       30.06S WCI  28
BUFFALO        DRIZZLE   34  32  92 W13       30.06R FOG     WCI  25
DUNKIRK        CLOUDY    35  34  96 W10       30.08R FOG     WCI  27
JAMESTOWN      CLOUDY    34  30  86 W8        30.03R WCI  27
WELLSVILLE     CLOUDY    34  31  88 W9        30.02S WCI  27
ROCHESTER      DRIZZLE   36  33  89 NW9       30.07R WCI  29
PENN YAN       CLOUDY    37  30  75 W5        30.05R WCI  33
$$

             KEY
       WCI = WIND CHILL INDEX
       VSB = VISIBILITY
       HX  = HEAT INDEX
$$




USA.gov is the U.S. government's official web portal to all federal, state and local government web resources and services.